Home   Weather   Temuco   Past weeks

Flag for Chile Past Weather in Temuco, Chile — Yesterday and Last 2 Weeks

Now
57 °F

Sprinkles. Mostly cloudy.


Feels Like: 57 °F
Forecast: N/A
Wind: 5 mph from Northeast

Location: Concepcion Airport

Current Time: Apr 24, 2017 at 6:16:47 pm

Latest Report: Apr 24, 2017 at 5:00 pm


Visibility: 2 mi

Pressure: 29.98 "Hg

Humidity: 94%

Dew Point: 55 °F

Location of TemucoLocation

Past Weather in Temuco — Graph

°F

Temuco Temperature Yesterday

Maximum temperature yesterday: 63 °F (at 2:00 pm)
Minimum temperature yesterday: 48 °F (at 7:00 am)
Average temperature yesterday: 55 °F

High & Low Weather Summary for the Past Weeks

 TemperatureHumidityPressure
High75 °F (Apr 11, 1:00 pm)100% (Apr 12, 12:00 am)30.18 "Hg (Apr 12, 12:00 am)
Low46 °F (Apr 15, 7:00 am)50% (Apr 11, 1:00 pm)29.80 "Hg (Apr 11, 6:00 pm)
Average59 °F84%30.01 "Hg
* Reported Apr 9 5:00 pm — Apr 24 5:00 pm, Temuco, Weather by CustomWeather, © 2017

Note: Actual official high and low records may vary slightly from our data, if they occured in-between our weather recording intervals... More about our weather records

Advertising

Temuco Weather History for the Previous 24 Hours

Scroll right to see more
 ConditionsComfort  
Time TempWeatherWind HumidityBarometerVisibility
5:00 pm
Mon, Apr 24
57 °FSprinkles. Mostly cloudy.5 mph94%29.98 "Hg2 mi
4:00 pm59 °FSprinkles. More clouds than sun.10 mph77%29.98 "Hg5 mi
3:00 pm57 °FSprinkles. Mostly cloudy.9 mph82%30.01 "Hg4 mi
2:00 pm61 °FOvercast.12 mph59%30.04 "HgN/A
1:00 pm61 °FPartly sunny.9 mph63%30.04 "HgN/A
12:00 pm59 °FBroken clouds.5 mph72%30.07 "HgN/A
11:00 am54 °FBroken clouds.No wind82%30.07 "HgN/A
10:00 am50 °FSunny.2 mph88%30.07 "Hg10 mi
9:00 am48 °FSunny.1 mph87%30.07 "Hg10 mi
8:00 am46 °FClear.3 mph93%30.07 "Hg10 mi
7:00 am46 °FClear.2 mph93%30.07 "Hg10 mi
6:00 am46 °FClear.2 mph93%30.07 "Hg10 mi
5:00 am46 °FClear.2 mph87%30.09 "Hg10 mi
4:00 am46 °FClear.2 mph93%30.09 "Hg10 mi
3:00 am46 °FClear.2 mph93%30.12 "Hg10 mi
2:00 am48 °FClear.3 mph94%30.12 "Hg10 mi
1:00 am48 °FClear.2 mph94%30.12 "Hg10 mi
12:00 am50 °FClear.No wind82%30.12 "Hg10 mi
11:00 pm
Sun, Apr 23
54 °FClear.2 mph77%30.12 "Hg10 mi
10:00 pm55 °FPassing clouds.7 mph77%30.12 "HgN/A
9:00 pm57 °FClear.7 mph72%30.12 "Hg10 mi
8:00 pm57 °FPassing clouds.6 mph72%30.09 "HgN/A
7:00 pm59 °FPassing clouds.9 mph63%30.09 "HgN/A
6:00 pm61 °FSunny.10 mph63%30.09 "Hg10 mi
Weather by CustomWeather, © 2017

See weather overviewHow to use our weather pages